Погода в Гётеборге

Швеция     57°42′37″N   11°59′11″E
темп.,
°C
ветер,
м/с
пор.,
м/с
влажн.,
%
обл.,
%
осадки,
мм/ч
давл.,
гПа
погр.,
м
16 октября, сб
сб1623:00+9зсз6115830 0.0 1009654
02:00+8зсз7127260 0.0 1009914
05:00+10з8136893 0.1 10091428
08:00+9з8137128 0.2 10091299
11:00+11з713709 0.1 10101482
14:00+11з8136860 0.2 10101359
17:00+11з81373100 0.0 10091194
20:00+10з7127750 0.1 10101015
17 октября, вс
вс1723:00+10з6117659 0.3 1010959
02:00+9з6117540 0.8 1010751
05:00+9з5107091 0.2 1010543
08:00+8з487267 0.2 1010301
11:00+10зсз45625 0.0 10111070
14:00+11зсз35575 0.0 10121184
17:00+9сз366115 0.0 1013441
20:00+5с237135 0.0 101566
18 октября, пн
пн1823:00+4всв1174100 0.0 101717
02:00+3в21785 0.0 101821
05:00+2в22783 0.0 101923
08:00+2в2173100 0.0 102021
11:00+6в235785 0.0 1021211
14:00+9всв1241100 0.0 1023708
17:00+7всв1253100 0.0 102342
20:00+5в1161100 0.0 102419
19 октября, вт
вт1923:00+5вюв2663100 0.0 1025136
02:00+4юв31065100 0.0 1024266
05:00+5юв41262100 0.0 1022422
08:00+4юв51382100 1.8 1020522
11:00+6юв61590100 2.1 1018596
14:00+8ююв51493100 2.3 1015674
17:00+10ююв61392100 0.4 1012599
20:00+11ю61391100 0.4 1009630
20 октября, ср
ср2023:00+10ю61395100 0.8 1005654
02:00+11ю71397100 2.0 1001737
05:00+12ююз51198100 0.4 997438
08:00+13ююз51298100 3.9 994562
11:00+14ююз91697100 12.4 9911027
14:00+13зюз71497100 19.8 990863
17:00+13ююз51294100 0.8 990653
20:00+12юз6149579 4.3 988658